User: anonymous   Login
Location: Caltech
(34.1382°N, 118.1253°W)
Time: 12:36:06
(UTC-08:00)
Language:

Cosmos 1939 Rocket - Orbit

View from above orbital plane
View from above orbital plane
View from above satellite
View from above satellite

Ground track
Ground track

The orbit data is extracted from the following two-line orbital elements,

1 19046U 88032B   17326.92319942 +.00000360 +00000-0 +31289-4 0  9995
2 19046 097.5124 009.0833 0039816 151.0482 209.2964 15.02353106596188
Epoch (UTC): 22 November 2017 22:09:24
Eccentricity: 0.0039816
inclination: 97.5124°
perigee height: 532 km
apogee height: 587 km
right ascension of ascending node: 9.0833°
argument of perigee: 151.0482°
revolutions per day: 15.02353106
mean anomaly at epoch: 209.2964°
orbit number at epoch: 59618

The dashed part of the orbit path shows where the satellite is in the earth's shadow,  

DLR